Edwards AFB North Base, CA

5:41 PM PDT on September 15, 2019 (GMT -0700)
Edwards AFB North Base

Weather History for K9L2 - August, 2019

Change the Weather History Date:

Sunday, August 18, 2019

  Actual Average (WUND) Record (WUND)
Temperature  
Mean Temperature 80 °F -  
Max Temperature 97 °F - - (-1)
Min Temperature 64 °F - - (-1)
Cooling Degree Days 16    
Growing Degree Days 30 (Base 50)    
Moisture  
Dew Point 32 °F    
Average Humidity 19    
Maximum Humidity 33    
Minimum Humidity 6    
Precipitation  
Precipitation 0.00 in - - ()
Sea Level Pressure  
Sea Level Pressure 29.80 in    
Wind  
Wind Speed 13 mph (SSW)    
Max Wind Speed 21 mph    
Max Gust Speed 26 mph    
Visibility 9 miles    
Events      
Averages and records for this station are not official NWS values.
T = Trace of Precipitation, MM = Missing Value Source: NWS Daily Summary

Daily Weather History Graph

Daily Weather History Graph

Search for Another Location

Airport or City:

Astronomy

Aug. 18, 2019 Rise Set
Actual Time 6:13 AM PDT 7:36 PM PDT
Civil Twilight 5:47 AM PDT 8:02 PM PDT
Nautical Twilight 5:15 AM PDT 8:34 PM PDT
Astronomical Twilight 4:41 AM PDT 9:07 PM PDT
Moon 9:39 PM PDT (8/18) 8:57 AM PDT (8/18)
Length of Visible Light 14h 15m
Length of Day
13h 22m
Waning Gibbous, 91% of the Moon is Illuminated
Aug 18
Waning Gibbous
Aug 23
Last Quarter
Aug 30
New
Sep 5
First Quarter
Sep 13
Full

Hourly Weather History & Observations

Time (PDT) Temp. Dew Point Humidity Pressure Visibility Wind Dir Wind Speed Gust Speed Precip Events Conditions
12:58 AM 74.5 °F 32.0 °F 21% 29.75 in 10.0 mi SSW 17.3 mph 21.9 mph N/A   Clear
1:58 AM 74.1 °F 30.6 °F 20% 29.75 in 10.0 mi SW 12.7 mph - N/A   Clear
2:58 AM 72.7 °F 30.7 °F 21% 29.77 in 10.0 mi SW 11.5 mph - N/A   Clear
3:58 AM 66.6 °F 31.6 °F 27% 29.78 in 10.0 mi SE 8.1 mph - N/A   Clear
4:58 AM 68.4 °F 32.2 °F 26% 29.78 in 10.0 mi SSE 5.8 mph - N/A   Clear
5:58 AM 69.1 °F 30.7 °F 24% 29.79 in 10.0 mi SSE 8.1 mph - N/A   Clear
6:58 AM 64.8 °F 34.5 °F 33% 29.82 in 10.0 mi ESE 5.8 mph - N/A   Clear
7:58 AM 69.1 °F 35.4 °F 29% 29.82 in 10.0 mi ESE 8.1 mph - N/A   Clear
8:58 AM 78.6 °F 32.4 °F 19% 29.83 in 10.0 mi South 4.6 mph - N/A   Clear
9:58 AM 85.6 °F 30.2 °F 14% 29.82 in 9.0 mi SSW 12.7 mph - N/A   Clear
10:58 AM 89.6 °F 32.2 °F 13% 29.83 in 8.0 mi SSW 15.0 mph - N/A   Clear
11:58 AM 92.3 °F 30.2 °F 11% 29.82 in 8.0 mi South 9.2 mph - N/A   Partly Cloudy
12:58 PM 93.9 °F 28.0 °F 10% 29.82 in 8.0 mi South 10.4 mph 19.6 mph N/A   Partly Cloudy
1:58 PM 95.5 °F 19.6 °F 6% 29.80 in 7.0 mi SSW 9.2 mph - N/A   Clear
2:58 PM 97.0 °F 19.0 °F 6% 29.78 in 8.0 mi South 16.1 mph 19.6 mph N/A   Clear
3:58 PM 96.3 °F 22.8 °F 7% 29.77 in 7.0 mi SW 18.4 mph 23.0 mph N/A   Clear
4:58 PM 94.1 °F 29.3 °F 10% 29.76 in 8.0 mi SSW 18.4 mph 24.2 mph N/A   Clear
5:58 PM 92.1 °F 30.0 °F 11% 29.77 in 8.0 mi SSW 17.3 mph - N/A   Clear
6:58 PM 87.8 °F 35.1 °F 15% 29.78 in 8.0 mi SSW 16.1 mph 26.5 mph N/A   Clear
7:58 PM 82.0 °F 35.8 °F 19% 29.79 in 9.0 mi SSW 20.7 mph 25.3 mph N/A   Clear
8:58 PM 79.7 °F 37.6 °F 22% 29.82 in 10.0 mi SSW 15.0 mph - N/A   Clear
9:58 PM 78.4 °F 39.7 °F 25% 29.83 in 10.0 mi SW 16.1 mph - N/A   Clear
10:58 PM 77.4 °F 40.6 °F 27% 29.83 in 10.0 mi SW 16.1 mph - N/A   Clear
11:58 PM 77.2 °F 43.9 °F 31% 29.83 in 10.0 mi SW 15.0 mph - N/A   Clear